Location: Unspecified
(58.7730°N, 5.8460°E)
Time: 08:50:15
(UTC+02:00)

CZ-3 Stage 3 - Visible Passes

Search period start: 30 May 2016 00:00
Search period end: 09 June 2016 00:00
Orbit: 423 x 34781 km, 30.4° (Epoch: 28 May)

Date Brightness Start Highest point End Pass type
(mag) Time Alt. Az. Time Alt. Az. Time Alt. Az.
01 Jun 5.6 02:14:37 10° SW 02:23:12 13° SSW 02:27:53 10° S visible
04 Jun 5.6 02:04:54 10° SW 02:14:42 13° SSW 02:19:43 10° S visible
07 Jun 5.5 01:55:12 10° SW 02:06:12 14° SSW 02:11:31 10° S visible
